Location: Highridge
(54.0333°N, 114.1333°W)
Time: 05:27:52
(UTC+00:00)

SO-50 - Pass Details

Date: 11 December 2023
Orbit: 608 x 660 km, 64.6° (Epoch: 02 March)

Event Time Altitude Azimuth Distance (km) Brightness Sun altitude
Exits shadow 12:00:43 18° 28° (NNE) 1,560 ? -31.4°
Drops below altitude 10° 12:02:11 10° 40° (NE) 2,035 ? -31.2°
Sets 12:04:40 0° 50° (NE) 2,935 ? -30.8°
